TimeEDT,TemperatureF,Dew PointF,Humidity,Sea Level PressureIn,VisibilityMPH,Wind Direction,Wind SpeedMPH,Gust SpeedMPH,PrecipitationIn,Events,Conditions,WindDirDegrees,DateUTC
12:51 AM,34.0,24.1,67,29.72,10.0,West,3.5,-,N/A,,Clear,270,2013-03-14 04:51:00
1:51 AM,32.0,24.1,73,29.72,10.0,West,3.5,-,N/A,,Clear,280,2013-03-14 05:51:00
2:51 AM,30.9,24.1,76,29.72,10.0,Calm,Calm,-,N/A,,Clear,0,2013-03-14 06:51:00
4:51 AM,30.9,21.9,69,29.70,10.0,Variable,3.5,-,N/A,,Clear,0,2013-03-14 08:51:00
5:51 AM,30.0,21.0,69,29.71,10.0,Calm,Calm,-,N/A,,Mostly Cloudy,0,2013-03-14 09:51:00
6:51 AM,32.0,21.0,64,29.72,10.0,WNW,4.6,-,N/A,,Overcast,290,2013-03-14 10:51:00
7:51 AM,32.0,21.0,64,29.72,10.0,Variable,3.5,-,N/A,,Overcast,0,2013-03-14 11:51:00
8:51 AM,32.0,19.9,61,29.73,10.0,Variable,5.8,-,N/A,,Overcast,0,2013-03-14 12:51:00
9:51 AM,33.1,17.1,52,29.73,10.0,WNW,8.1,-,N/A,,Overcast,300,2013-03-14 13:51:00
10:51 AM,33.1,16.0,50,29.71,10.0,WNW,8.1,-,N/A,,Overcast,290,2013-03-14 14:51:00
11:51 AM,35.1,16.0,46,29.69,10.0,Variable,5.8,-,N/A,,Overcast,0,2013-03-14 15:51:00
12:51 PM,35.1,15.1,44,29.68,10.0,WNW,9.2,-,N/A,,Overcast,290,2013-03-14 16:51:00
1:51 PM,34.0,17.1,50,29.66,10.0,West,8.1,21.9,N/A,,Overcast,280,2013-03-14 17:51:00
2:51 PM,34.0,15.1,46,29.65,10.0,Variable,4.6,-,N/A,,Overcast,0,2013-03-14 18:51:00
3:51 PM,34.0,12.9,42,29.64,10.0,WNW,9.2,18.4,N/A,,Overcast,290,2013-03-14 19:51:00
4:51 PM,34.0,14.0,44,29.65,10.0,NW,15.0,23.0,N/A,,Overcast,310,2013-03-14 20:51:00
5:51 PM,30.0,19.9,66,29.68,10.0,WNW,10.4,25.3,N/A,,Overcast,290,2013-03-14 21:51:00
6:51 PM,28.9,15.1,56,29.71,10.0,NW,17.3,25.3,N/A,,Overcast,310,2013-03-14 22:51:00
7:51 PM,26.1,9.0,49,29.75,10.0,NW,25.3,36.8,N/A,,Overcast,310,2013-03-14 23:51:00
8:51 PM,23.0,6.1,48,29.78,10.0,WNW,13.8,27.6,N/A,,Overcast,300,2013-03-15 00:51:00
9:51 PM,21.0,7.0,55,29.78,10.0,NW,20.7,28.8,N/A,,Mostly Cloudy,310,2013-03-15 01:51:00
10:51 PM,19.9,3.0,48,29.77,10.0,WNW,18.4,27.6,N/A,,Clear,300,2013-03-15 02:51:00
11:51 PM,19.9,3.0,48,29.77,10.0,WNW,15.0,24.2,N/A,,Clear,300,2013-03-15 03:51:00